FW5872 Weather Reports


time (UTC)temp
F
wind
direction
speed
knots
gust
knots
rain 1hr
in
rain 24hr
in
rain mn
in
humidity
%
barometer
mb
20260504201529 77 281 0.0 4.3 0.00 0.00 0.00 38 1010.1
20260504200035 76 260 2.6 5.2 0.00 0.00 0.00 35 1010.6
20260504194531 76 288 0.9 4.3 0.00 0.00 0.00 36 1010.6
20260504193030 77 273 0.9 6.1 0.00 0.00 0.00 36 1010.8
20260504191533 77 285 1.7 5.2 0.00 0.00 0.00 36 1011.0
20260504190028 75 285 2.6 5.2 0.00 0.00 0.00 37 1011.4
20260504184536 75 266 1.7 4.3 0.00 0.00 0.00 38 1011.9
20260504183036 75 287 1.7 6.1 0.00 0.00 0.00 36 1012.1
20260504181532 74 294 2.6 6.1 0.00 0.00 0.00 36 1012.2
20260504180030 74 269 2.6 6.1 0.00 0.00 0.00 38 1012.4
20260504174528 73 283 1.7 6.1 0.00 0.00 0.00 39 1012.6
20260504173030 73 258 0.9 5.2 0.00 0.00 0.00 42 1012.9
20260504171530 72 358 0.9 6.1 0.00 0.00 0.00 39 1013.0
20260504081529 48 0 0.0 0.0 0.00 0.00 0.00 70 1015.8
20260504044528 45 0 0.0 0.0 0.00 0.00 0.00 70 1016.0
20260504043030 45 0 0.0 0.9 0.00 0.00 0.00 71 1015.9
20260504041529 45 0 0.0 0.0 0.00 0.00 0.00 69 1016.0
20260504040029 44 0 0.0 0.0 0.00 0.00 0.00 72 1016.0
20260504034528 44 0 0.0 0.0 0.00 0.00 0.00 74 1016.0
20260504033028 45 0 0.0 0.0 0.00 0.00 0.00 74 1015.8
20260504031530 45 0 0.0 0.0 0.00 0.00 0.00 73 1015.7
20260504030034 45 0 0.0 0.0 0.00 0.00 0.00 71 1015.7
20260504024529 46 0 0.0 0.0 0.00 0.00 0.00 68 1015.6
20260504023028 46 0 0.0 0.0 0.00 0.00 0.00 66 1015.5
20260504021535 47 0 0.0 0.0 0.00 0.00 0.00 65 1015.5
20260504020035 48 0 0.0 0.0 0.00 0.00 0.00 66 1015.5
20260504014530 48 0 0.0 0.0 0.00 0.00 0.00 61 1015.3
20260504013035 49 0 0.0 0.0 0.00 0.00 0.00 58 1015.3
20260504011528 50 0 0.0 0.0 0.00 0.00 0.00 55 1015.2
20260504010028 51 0 0.0 0.0 0.00 0.00 0.00 57 1015.2
20260504004539 52 0 0.0 0.0 0.00 0.00 0.00 55 1015.1
20260504003027 54 0 0.0 0.0 0.00 0.00 0.00 54 1015.0
20260504001535 55 0 0.0 0.0 0.00 0.00 0.00 44 1014.9
20260504000028 56 0 0.0 0.0 0.00 0.00 0.00 43 1014.8
20260503234534 58 0 0.0 1.7 0.00 0.00 0.00 42 1014.6
20260503233027 59 0 0.0 0.9 0.00 0.00 0.00 41 1014.5
20260503231528 60 0 0.0 3.5 0.00 0.00 0.00 39 1014.4
20260503230030 60 268 0.9 3.5 0.00 0.00 0.00 34 1014.3
20260503224529 60 260 0.0 4.3 0.00 0.00 0.00 34 1014.4
20260503223028 60 288 0.0 4.3 0.00 0.00 0.00 37 1014.5
20260503221533 60 262 0.9 4.3 0.00 0.00 0.00 35 1014.5
20260503220034 60 296 0.0 5.2 0.00 0.00 0.00 37 1014.5
20260503214537 61 290 1.7 7.0 0.00 0.00 0.00 34 1014.6
20260503213034 61 269 1.7 6.1 0.00 0.00 0.00 34 1014.5
20260503211526 61 0 0.0 4.3 0.00 0.00 0.00 36 1014.7
20260503210028 61 58 0.0 6.1 0.00 0.00 0.00 35 1014.6
20260503204529 61 43 0.0 3.5 0.00 0.00 0.00 37 1014.6
20260503203027 61 246 3.5 7.0 0.00 0.00 0.00 34 1014.7